Location: Banios
(43.0451°N, 0.2335°E)
Time: 12:05:31
(UTC+00:00)

Envisat - Pass Details

Date: 11 December 2021
Orbit: 764 x 766 km, 98.2° (Epoch: 28 January)

Event Time Altitude Azimuth Distance (km) Brightness Sun altitude
Rises 06:11:14 0° 0° (N) 3,243 6.0 -12.2°
Reaches altitude 10° 06:13:57 10° 347° (NNW) 2,312 5.2 -11.7°
Maximum altitude 06:17:53 23° 296° (WNW) 1,585 4.0 -11.1°
Drops below altitude 10° 06:21:48 10° 245° (WSW) 2,299 5.1 -10.4°
Sets 06:24:30 0° 231° (SW) 3,221 5.9 -9.9°
